Showing default

EXPLORER 20, 870

Orbit data source: Space-Track

EXPLORER 20, 870 is a payload satellite owned by GSFC (US) in LEO that was launched on Tue, 25 Aug 1964 UTC via an SCOUT X-4 launch vehicle from the Air Force Western Test Range (AFWTR). Payload-class satellites include a variety of spacecraft equipped with specific instruments for various scientific and technological missions. These include communications satellites like Starlink; space stations such as the ISS; scientific satellites like the Hubble; Earth observation satellites from companies like Planet Labs, Umbra, and HawkEye 360; GPS; miniature CubeSats for education and research; and military/defense satellites.

Loading next visibility...
Identifier
870, 1964-051A
Orbit
LEO
Country
Flag of USUS
Related business
Manufacturer
Cutler-Hammer/AIL
Mission
Spacecraft
Bus & Motor
S-48, Unknown motor
Mass
44 kg wet, 44 kg dry
Launch date (UTC)
1964-08-25 (62 years ago)
Launch vehicle
SCOUT X-4
Launch site
Air Force Western Test Range (AFWTR)
Object type
Payload
Rocket body
Debris
Shape & HBR
DCONE + 6 ANT, 1.1 m
Radar Cross Section
Medium (>0.1 m² and <1 m²)

Expand to show TLE details & history
Last TLE update: 19 hours ago

TLE from 19 hours ago
0 EXPLORER 20
1   870U 64051A   26257.52572108  .00000114  00000-0  80364-4 0  9994
2   870  79.9002 181.5185 0097855  48.9730 311.9834 13.91806299145869
Epoch: 2026-09-14T12:37Z
TLE epoch observation values (Epoch: 2026-09-14T12:37:02.301Z)
Latitude
0.00006°
Longitude
-1.24584°
Altitude
877.731 km
Speed
7.437 km/s
True Right ascension
12h 06m 04s
True Declination
0° 00' 00"
Sunlit
Object was in daylight at epoch
Visualization orbit readout
Latitude
Unknown
Longitude
Unknown
Altitude
Unknown
Speed
Unknown
Apparent Right ascension
Unknown
Apparent Declination
Unknown
Sunlit
N/A
Visualization observer readout
Local Sidereal Time
00:01:53
Azimuth
Unknown
Elevation
Unknown
Doppler factor
Unknown
Orbital elements
Apogee altitude
990.986 km
Perigee altitude
848.163 km
Semi-major axis
7,297.711 km
Eccentricity
0.00979
Inclination
79.9002°
RAAN
181.5185°
Arg. of periapsis
48.973°
True anomaly
311.14302°
Mean anomaly
311.9834°
Eccentric anomaly
311.5639°
Mean motion
3.48147 °/min
Orbital period
103.4 mins
BSTAR
0.000080364
Loading maneuver chart data...
Computing Atmospheric mass density...
Loading historical data...
Loading historical data...
Loading historical data...
Loading historical data...
Loading historical data...
Loading historical data...
Loading historical data...

Documentation

Showing up to 5 results
|